Time,TemperatureF,DewpointF,PressureIn,WindDirection,WindDirectionDegrees,WindSpeedMPH,WindSpeedGustMPH,Humidity,HourlyPrecipIn,Conditions,Clouds,dailyrainin,SolarRadiationWatts/m^2,SoftwareType,DateUTC
2013-09-18 00:04:00,45.0,39.0,-100.00,South,169,1.0,2.0,78,0.00,,,0.01,0.000000,,2013-09-18 04:04:00,
2013-09-18 00:14:00,45.0,39.0,-100.00,South,169,1.0,2.0,78,0.00,,,0.01,0.000000,,2013-09-18 04:14:00,
2013-09-18 00:44:00,45.0,37.0,-100.00,SSE,160,1.0,1.0,74,0.00,,,0.01,0.000000,,2013-09-18 04:44:00,
2013-09-18 00:54:00,45.0,37.0,-100.00,SSE,160,1.0,1.0,74,0.00,,,0.01,0.000000,,2013-09-18 04:54:00,
2013-09-18 01:04:00,45.0,37.0,-100.00,SSE,160,1.0,1.0,74,0.00,,,0.01,0.000000,,2013-09-18 05:04:00,
2013-09-18 01:13:00,45.0,37.0,-100.00,SSE,160,1.0,1.0,74,0.00,,,0.01,0.000000,,2013-09-18 05:13:00,
2013-09-18 01:43:00,46.0,38.0,-100.00,SSE,151,1.0,2.0,73,0.00,,,0.01,0.000000,,2013-09-18 05:43:00,
2013-09-18 01:53:00,46.0,38.0,-100.00,SSE,151,1.0,2.0,73,0.00,,,0.01,0.000000,,2013-09-18 05:53:00,
2013-09-18 02:02:00,46.0,38.0,-100.00,SSE,151,1.0,2.0,73,0.00,,,0.01,0.000000,,2013-09-18 06:02:00,
2013-09-18 02:12:00,46.0,38.0,-100.00,SSE,151,1.0,2.0,73,0.00,,,0.01,0.000000,,2013-09-18 06:12:00,
2013-09-18 02:42:00,46.0,38.0,-100.00,SSE,158,1.0,2.0,74,0.00,,,0.01,0.000000,,2013-09-18 06:42:00,
2013-09-18 02:52:00,46.0,38.0,-100.00,SSE,158,1.0,2.0,74,0.00,,,0.01,0.000000,,2013-09-18 06:52:00,
2013-09-18 03:02:00,46.0,38.0,-100.00,SSE,158,1.0,2.0,74,0.00,,,0.01,0.000000,,2013-09-18 07:02:00,
2013-09-18 03:12:00,46.0,38.0,-100.00,SSE,158,1.0,2.0,74,0.00,,,0.01,0.000000,,2013-09-18 07:12:00,
2013-09-18 03:42:00,45.0,39.0,-100.00,SSE,156,1.0,5.0,79,0.00,,,0.01,0.000000,,2013-09-18 07:42:00,
2013-09-18 03:52:00,45.0,39.0,-100.00,SSE,156,1.0,5.0,79,0.00,,,0.01,0.000000,,2013-09-18 07:52:00,
2013-09-18 04:02:00,45.0,39.0,-100.00,SSE,156,1.0,5.0,79,0.00,,,0.01,0.000000,,2013-09-18 08:02:00,
2013-09-18 04:12:00,45.0,39.0,-100.00,SSE,156,1.0,5.0,79,0.00,,,0.01,0.000000,,2013-09-18 08:12:00,
2013-09-18 04:42:00,45.0,40.0,-100.00,SSE,156,1.0,3.0,83,0.00,,,0.01,0.000000,,2013-09-18 08:42:00,
2013-09-18 04:52:00,45.0,40.0,-100.00,SSE,156,1.0,3.0,83,0.00,,,0.01,0.000000,,2013-09-18 08:52:00,
2013-09-18 05:02:00,45.0,40.0,-100.00,SSE,156,1.0,3.0,83,0.00,,,0.01,0.000000,,2013-09-18 09:02:00,
2013-09-18 05:12:00,45.0,40.0,-100.00,SSE,156,1.0,3.0,83,0.00,,,0.01,0.000000,,2013-09-18 09:12:00,
2013-09-18 05:53:00,46.0,41.0,-100.00,South,175,1.0,2.0,81,0.00,,,0.01,0.000000,,2013-09-18 09:53:00,
2013-09-18 06:03:00,46.0,41.0,-100.00,South,175,1.0,2.0,81,0.00,,,0.01,0.000000,,2013-09-18 10:03:00,
2013-09-18 06:43:00,45.0,40.0,-100.00,SSE,166,1.0,2.0,82,-99.99,,,0.01,0.000000,,2013-09-18 10:43:00,
2013-09-18 06:53:00,45.0,40.0,-100.00,SSE,166,1.0,2.0,82,-99.99,,,0.01,0.000000,,2013-09-18 10:53:00,
2013-09-18 07:02:00,45.0,40.0,-100.00,SSE,166,1.0,2.0,82,-99.99,,,0.01,0.000000,,2013-09-18 11:02:00,
2013-09-18 07:12:00,45.0,40.0,-100.00,SSE,166,1.0,2.0,82,-99.99,,,0.01,0.000000,,2013-09-18 11:12:00,
2013-09-18 07:42:00,46.0,40.0,-100.00,South,177,1.0,1.0,79,0.00,,,0.01,1.000000,,2013-09-18 11:42:00,
2013-09-18 07:52:00,46.0,40.0,-100.00,South,177,1.0,1.0,79,0.00,,,0.01,1.000000,,2013-09-18 11:52:00,
2013-09-18 08:01:00,46.0,40.0,-100.00,South,177,1.0,1.0,79,0.00,,,0.01,1.000000,,2013-09-18 12:01:00,
2013-09-18 08:12:00,46.0,40.0,-100.00,South,177,1.0,1.0,79,0.00,,,0.01,1.000000,,2013-09-18 12:12:00,
2013-09-18 08:43:00,48.0,41.0,-100.00,SSE,164,1.0,2.0,76,0.00,,,0.01,13.000000,,2013-09-18 12:43:00,
2013-09-18 08:52:00,48.0,41.0,-100.00,SSE,164,1.0,2.0,76,0.00,,,0.01,13.000000,,2013-09-18 12:52:00,
2013-09-18 09:02:00,48.0,41.0,-100.00,SSE,164,1.0,2.0,76,0.00,,,0.01,13.000000,,2013-09-18 13:02:00,
2013-09-18 09:11:00,48.0,41.0,-100.00,SSE,164,1.0,2.0,76,0.00,,,0.01,13.000000,,2013-09-18 13:11:00,